North Platte, NE

3:05 AM CDT on April 26, 2017 (GMT -0500)
North Platte Regional-Bird

Weather History for KLBF - May, 2014

Change the Weather History Date:

Saturday, May 24, 2014

  Actual Average Record
Temperature  
Mean Temperature 67 °F 60 °F  
Max Temperature 75 °F 74 °F 97 °F (1953)
Min Temperature 58 °F 47 °F 31 °F (1966)
Degree Days  
Heating Degree Days 0 6  
Month to date heating degree days 263 211  
Since 1 July heating degree days 6830 6601  
Cooling Degree Days 2 1  
Month to date cooling degree days 7 14  
Year to date cooling degree days 9 17  
Growing Degree Days 16 (Base 50)    
Moisture  
Dew Point 59 °F    
Average Humidity 79    
Maximum Humidity 97    
Minimum Humidity 61    
Precipitation  
Precipitation T in 0.12 in 2.25 in (1881)
Month to date precipitation 1.66 2.43  
Year to date precipitation 4.14 6.59  
Snow  
Snow 0.00 in 0.00 in T in (2002)
Month to date snowfall T 0.0  
Since 1 July snowfall 29.8 28.5  
Snow Depth 0.00 in    
Sea Level Pressure  
Sea Level Pressure 30.02 in    
Wind  
Wind Speed 7 mph (SE)    
Max Wind Speed 21 mph    
Max Gust Speed 24 mph    
Visibility 8 miles    
Events Rain    
T = Trace of Precipitation, MM = Missing Value Source: NWS Daily Summary

Daily Weather History Graph

Daily Weather History Graph

Search for Another Location

Airport or City:

Trip Planner

Search our weather history database for the weather conditions in past years. The results will help you decide how hot, cold, wet, or windy it might be!

Date:

Astronomy

May. 24, 2014 Rise Set
Actual Time 6:17 AM CDT 9:02 PM CDT
Civil Twilight 5:44 AM CDT 9:34 PM CDT
Nautical Twilight 5:04 AM CDT 10:15 PM CDT
Astronomical Twilight 4:18 AM CDT 11:02 PM CDT
Moon 3:49 AM CDT (5/24) 4:59 PM CDT (5/24)
Length of Visible Light 15h 50m
Length of Day
14h 45m
Waning Crescent, 18% of the Moon is Illuminated
May 24
Waning Crescent
May 28
New
Jun 5
First Quarter
Jun 12
Full
Jun 19
Last Quarter

Hourly Weather History & Observations

Time (CDT) Temp. Dew Point Humidity Pressure Visibility Wind Dir Wind Speed Gust Speed Precip Events Conditions
12:15 AM 62.1 °F 59.0 °F 90% 30.09 in 10.0 mi SE 5.8 mph - N/A   Overcast
12:53 AM 62.1 °F 59.0 °F 90% 30.03 in 9.0 mi SE 5.8 mph - N/A   Overcast
1:00 AM 62.1 °F 59.0 °F 90% 30.08 in 9.0 mi SE 4.6 mph - N/A   Overcast
1:31 AM 62.1 °F 59.0 °F 90% 30.08 in 8.0 mi SE 6.9 mph - N/A   Overcast
1:40 AM 62.1 °F 59.0 °F 90% 30.08 in 9.0 mi SSE 6.9 mph - N/A   Overcast
1:53 AM 62.1 °F 59.0 °F 90% 30.04 in 8.0 mi SE 5.8 mph - N/A   Overcast
2:22 AM 62.1 °F 59.0 °F 90% 30.08 in 10.0 mi SE 6.9 mph - N/A   Overcast
2:50 AM 60.8 °F 59.0 °F 94% 30.08 in 10.0 mi SE 6.9 mph - N/A   Overcast
2:53 AM 61.0 °F 59.0 °F 93% 30.05 in 10.0 mi SE 6.9 mph - N/A   Overcast
3:20 AM 61.0 °F 59.0 °F 93% 30.08 in 10.0 mi SE 8.1 mph - N/A   Overcast
3:53 AM 61.0 °F 59.0 °F 93% 30.03 in 10.0 mi SE 8.1 mph - N/A   Overcast
4:20 AM 61.0 °F 59.0 °F 93% 30.06 in 8.0 mi SE 8.1 mph - N/A   Overcast
4:53 AM 61.0 °F 59.0 °F 93% 30.02 in 9.0 mi SE 3.5 mph - N/A   Overcast
5:53 AM 60.1 °F 57.9 °F 93% 30.02 in 8.0 mi SSE 6.9 mph - N/A   Mostly Cloudy
6:24 AM 59.0 °F 57.0 °F 93% 30.05 in 5.0 mi East 4.6 mph - N/A   Scattered Clouds
6:31 AM 59.0 °F 57.0 °F 93% 30.06 in 4.0 mi ESE 3.5 mph - N/A   Mostly Cloudy
6:53 AM 60.1 °F 57.9 °F 93% 30.01 in 6.0 mi SSE 5.8 mph - N/A   Overcast
7:38 AM 60.1 °F 59.0 °F 96% 30.05 in 5.0 mi ESE 4.6 mph - N/A   Overcast
7:53 AM 60.1 °F 57.9 °F 93% 30.01 in 5.0 mi Calm Calm - N/A   Overcast
8:27 AM 60.1 °F 57.9 °F 93% 30.07 in 5.0 mi ESE 10.4 mph - N/A   Overcast
8:43 AM 60.1 °F 57.9 °F 93% 30.09 in 5.0 mi ESE 10.4 mph - N/A   Overcast
8:53 AM 60.1 °F 57.9 °F 93% 30.05 in 4.0 mi ESE 8.1 mph - N/A   Overcast
9:11 AM 60.1 °F 57.9 °F 93% 30.09 in 1.8 mi ESE 9.2 mph - N/A   Overcast
9:37 AM 60.1 °F 59.0 °F 96% 30.09 in 2.5 mi SE 5.8 mph - N/A   Overcast
9:53 AM 61.0 °F 59.0 °F 93% 30.05 in 4.0 mi ESE 5.8 mph - N/A   Overcast
10:53 AM 61.0 °F 59.0 °F 93% 30.04 in 5.0 mi ESE 9.2 mph - 0.00 in Rain Light Rain
11:10 AM 61.0 °F 59.0 °F 93% 30.08 in 3.0 mi SE 6.9 mph - 0.00 in Rain Light Rain
11:22 AM 62.1 °F 60.1 °F 93% 30.08 in 4.0 mi SE 5.8 mph - 0.00 in   Overcast
11:33 AM 62.1 °F 60.1 °F 93% 30.08 in 5.0 mi ESE 8.1 mph - 0.00 in   Overcast
11:53 AM 62.1 °F 59.0 °F 90% 30.04 in 5.0 mi SE 8.1 mph - 0.00 in Rain Light Rain
12:06 PM 63.0 °F 60.1 °F 90% 30.08 in 5.0 mi SSE 5.8 mph - 0.00 in   Overcast
12:30 PM 64.0 °F 59.0 °F 84% 30.08 in 10.0 mi South 6.9 mph - 0.00 in   Overcast
12:53 PM 64.9 °F 59.0 °F 81% 30.02 in 10.0 mi South 8.1 mph - 0.00 in   Overcast
1:53 PM 71.1 °F 59.0 °F 66% 29.98 in 10.0 mi ESE 11.5 mph - N/A   Overcast
2:53 PM 72.0 °F 57.9 °F 61% 29.97 in 10.0 mi SSE 11.5 mph - N/A   Mostly Cloudy
3:53 PM 73.9 °F 59.0 °F 59% 29.95 in 10.0 mi SE 11.5 mph 16.1 mph N/A   Mostly Cloudy
4:53 PM 73.0 °F 59.0 °F 61% 29.93 in 10.0 mi ESE 15.0 mph 19.6 mph N/A   Partly Cloudy
5:53 PM 71.1 °F 59.0 °F 66% 29.92 in 10.0 mi SE 6.9 mph - N/A   Mostly Cloudy
6:53 PM 71.1 °F 57.9 °F 63% 29.90 in 10.0 mi SE 5.8 mph - N/A   Mostly Cloudy
7:53 PM 69.1 °F 59.0 °F 70% 29.90 in 10.0 mi SE 6.9 mph - N/A   Scattered Clouds
8:53 PM 66.0 °F 59.0 °F 78% 29.93 in 10.0 mi SSE 4.6 mph - N/A   Mostly Cloudy
9:53 PM 62.6 °F 59.0 °F 88% 29.97 in 10.0 mi East 6.9 mph - N/A   Partly Cloudy
10:53 PM 60.1 °F 57.0 °F 90% 29.95 in 10.0 mi ESE 5.8 mph - N/A   Clear
11:53 PM 60.1 °F 57.9 °F 93% 29.95 in 10.0 mi ESE 5.8 mph - N/A   Mostly Cloudy